Location: Santa Barbara
(34.4500°N, 119.7700°W)
Time: 22:19:58
(UTC-07:00)

Cosmos 1626 Rocket - Visible Passes

Search period start: 18 April 2014 00:00
Search period end: 28 April 2014 00:00
Orbit: 604 x 634 km, 82.5° (Epoch: 18 April)

Date Brightness Start Highest point End Pass type
(mag) Time Alt. Az. Time Alt. Az. Time Alt. Az.
25 Apr 6.4 22:58:52 11° NNE 22:58:52 11° NNE 22:59:01 10° NNE visible
26 Apr 6.3 23:15:48 14° N 23:15:48 14° N 23:16:28 10° N visible
27 Apr 6.4 23:32:42 15° NNW 23:32:42 15° NNW 23:33:33 10° NNW visible
